Flag for France Weather past 2 weeks in Bourges, France

Now
59 °F

Cool.


Feels Like: 58 °F
Forecast: 58 / 72 °F
Wind: 6 mph from East

Location: Bourges

Current Time: Sep 20, 2014 at 2:34:26 AM

Latest Report: Sep 20, 2014 at 2:00 AM


Visibility: 9 mi

Pressure: 29.93 "Hg

Humidity: 94%

Dew point: 57 °F

Location of BourgesLocation

Historic Weather in Bourges — Graph

°F

Bourges temperature yesterday

Maximum temperature yesterday: 68 °F (at 2:00 PM)
Minimum temperature yesterday: 58 °F (at 8:00 AM)
Average temperature yesterday: 63 °F

Past Weeks' High & Low Weather Summary

 TemperatureHumidityPressure
High84 °F (Sep 8, 5:00 PM)96% (Sep 6, 7:00 AM)30.15 "Hg (Sep 6, 7:00 AM)
Low51 °F (Sep 13, 7:00 AM)41% (Sep 7, 5:00 PM)29.74 "Hg (Sep 17, 7:00 PM)
Average67 °F70%29.95 "Hg
* Reported Sep 5 1:00 AM — Sep 20 1:00 AM, Bourges, Weather by CustomWeather, © 2014

Note: Actual official high and low records may vary slightly from our data, if they occured in-between our weather recording intervals... More about our weather records

Advertising

Bourges weather history for previous 24 hours

 ConditionsComfort  
Time TempWeatherWind HumidityBarometerVisibility
1:00 AM
Sep 20
61 °FOvercast.5 mph92%29.94 "Hg12 mi
12:00 AM61 °FOvercast.3 mph93%29.94 "Hg12 mi
11:00 PM
Sep 19
62 °FOvercast.3 mph91%29.94 "Hg12 mi
10:00 PM62 °FOvercast.5 mph92%29.94 "Hg12 mi
9:00 PM64 °FLight rain. Overcast.3 mph92%29.93 "Hg11 mi
8:00 PM64 °FOvercast.3 mph91%29.91 "Hg12 mi
7:00 PM65 °FOvercast.2 mph87%29.89 "Hg12 mi
6:00 PM65 °FOvercast.6 mph83%29.85 "Hg12 mi
5:00 PM64 °FThunderstorms. Overcast.6 mph86%29.86 "Hg6 mi
4:00 PM64 °FOvercast.3 mph91%29.88 "Hg12 mi
3:00 PM65 °FRain. Overcast.12 mph89%29.90 "Hg12 mi
2:00 PM68 °FThundershowers. Overcast.7 mph70%29.90 "Hg6 mi
1:00 PM67 °FThunderstorms. Overcast.7 mph84%29.87 "Hg12 mi
12:00 PM66 °FThundershowers. Overcast.12 mph85%29.89 "Hg9 mi
11:00 AM65 °FOvercast.3 mph85%29.87 "Hg12 mi
10:00 AM62 °FOvercast.8 mph92%29.87 "Hg9 mi
9:00 AM61 °FOvercast.6 mph92%29.86 "Hg9 mi
8:00 AM58 °FOvercast.6 mph96%29.85 "Hg9 mi
7:00 AM59 °FOvercast.7 mph95%29.83 "Hg9 mi
6:00 AM59 °FPassing clouds.7 mph95%29.83 "Hg9 mi
5:00 AM59 °FOvercast.6 mph95%29.83 "Hg12 mi
4:00 AM59 °FCool.6 mph94%29.84 "Hg12 mi
3:00 AM60 °FCool.7 mph93%29.84 "Hg12 mi
2:00 AM61 °FOvercast.6 mph93%29.84 "Hg12 mi
Weather by CustomWeather, © 2014

See weather overviewHow to use our weather pages